Content
SEND FEEDBACK

Daily
Averages
Monthly
Summary
United States of America

RAPID CITY, SOUTH DAKOTA


Home > North America > United States > South Dakota
Elevation: 3162 feet     Latitude: 44 03N     Longitude: 103 04W

WEATHER
 
SELECT A DAY
Number of Records: 200,576;   Date Range: 1/1/95 - 9/21/14
 
SHARE

PRINT THIS DATA

[ ← Previous Day ]
WEATHER ALMANAC - JANUARY 21, 2013
[ Next Day → ]
[ °C ]   °F
Weather ElementAverageHighLow
Temperature12.7 °F18 °F (1:52 pm)5 °F (11:52 pm)
Dewpoint8 °F10.9 °F (1:52 pm)1.9 °F (11:52 pm)
Humidity81.5 %92 % (5:41 pm)71 % (1:52 am)
Barometer30.27 in30.44 in (1:52 am)30.08 in (10:14 pm)
Wind Speed5.4 mph11.5 mph (5:14 pm)
Weather ElementAverage
Visibility7.3 mi
Wind DirectionESE (106.3 °)

Weather ElementTotal
Precipitation0.01 in
Heating Degree Days53.5 (Base 65)
Averaged from 38 records on January 21, 2013
WEATHER CONDITIONS BREAKOUT
WIND DIRECTION BREAKOUT
WEATHER BY HOUR - JANUARY 21, 2013
[ °C ]   °F
Local TimeTemperatureDewpointHumidityBarometerVisibilityWind DirectionWind SpeedGust SpeedPrecipitationEventsConditions
1:52 AM14.0 °F6.1 °F71 %30.44 in4.0 miNorth (360°)8.1 mph0.00 inSnowLight Snow
2:34 AM12.2 °F6.8 °F79 %30.25 in2.5 miNorth (10°)4.6 mph0.00 inSnowLight Snow
2:52 AM12.0 °F7.0 °F80 %30.42 in3.0 miNNE (20°)6.9 mph0.01 inSnowLight Snow
3:22 AM10.4 °F6.8 °F85 %30.24 in5.0 miNorth (350°)4.6 mph0.00 inSnowLight Snow
3:30 AM10.4 °F6.8 °F85 %30.24 in6.0 miCalm0.00 inSnowLight Snow
3:41 AM10.4 °F6.8 °F85 %30.23 in7.0 miNorth (10°)4.6 mph0.00 inSnowLight Snow
3:52 AM10.0 °F6.1 °F84 %30.40 in9.0 miNNE (20°)4.6 mph0.00 inOvercast
4:26 AM10.4 °F6.8 °F85 %30.23 in10.0 miNorth (360°)6.9 mphOvercast
4:52 AM12.0 °F7.0 °F80 %30.40 in10.0 miNNE (20°)6.9 mphOvercast
5:52 AM10.9 °F7.0 °F84 %30.40 in4.0 miNNE (30°)5.8 mph0.00 inSnowLight Snow
6:52 AM12.0 °F7.0 °F80 %30.38 in5.0 miCalm0.00 inSnowLight Snow
7:52 AM10.9 °F7.0 °F84 %30.42 in10.0 miNNE (20°)5.8 mph0.00 inOvercast
8:52 AM12.0 °F7.0 °F80 %30.42 in7.0 miCalm0.00 inSnowLight Snow
9:52 AM14.0 °F7.0 °F74 %30.42 in3.0 miCalm0.00 inSnowLight Snow
10:52 AM15.1 °F8.1 °F74 %30.41 in2.5 miNorth (350°)4.6 mph0.00 inSnowLight Snow
11:20 AM15.8 °F8.6 °F73 %30.21 in5.0 miNorth (10°)4.6 mph0.00 inSnowLight Snow
11:52 AM16.0 °F9.0 °F74 %30.37 in7.0 miNorth (10°)4.6 mph0.00 inSnowLight Snow
12:08 PM17.6 °F10.4 °F73 %30.18 in5.0 miNNE (30°)4.6 mph0.00 inSnowLight Snow
12:32 PM17.6 °F10.4 °F73 %30.17 in4.0 miCalm0.00 inSnowLight Snow
12:52 PM16.0 °F10.0 °F77 %30.33 in4.0 miSouth (190°)3.5 mph0.00 inSnowLight Snow
1:24 PM17.6 °F10.4 °F73 %30.13 in2.5 miSSE (160°)6.9 mph0.00 inSnowLight Snow
1:34 PM17.6 °F10.4 °F73 %30.14 in4.0 miSSE (160°)5.8 mph0.00 inSnowLight Snow
1:52 PM18.0 °F10.9 °F74 %30.30 in8.0 miSouth (170°)6.9 mph0.00 inOvercast
2:52 PM18.0 °F10.9 °F74 %30.31 in10.0 miCalmOvercast
3:52 PM18.0 °F10.9 °F74 %30.30 in10.0 miESE (120°)5.8 mphOvercast
4:52 PM16.0 °F10.9 °F81 %30.28 in10.0 miESE (120°)8.1 mph0.00 inOvercast
5:14 PM14.0 °F10.4 °F86 %30.09 in10.0 miESE (120°)11.5 mphScattered Clouds
5:41 PM12.2 °F10.4 °F92 %30.09 in10.0 miESE (110°)8.1 mphMostly Cloudy
5:52 PM12.9 °F10.0 °F88 %30.30 in10.0 miESE (120°)8.1 mphOvercast
6:52 PM10.9 °F8.1 °F88 %30.30 in10.0 miEast (100°)6.9 mphOvercast
7:52 PM10.9 °F8.1 °F88 %30.28 in10.0 miSE (130°)9.2 mphOvercast
8:52 PM10.9 °F8.1 °F88 %30.28 in10.0 miESE (120°)9.2 mphOvercast
9:00 PM10.4 °F8.6 °F92 %30.09 in10.0 miESE (120°)8.1 mphOvercast
9:52 PM10.0 °F7.0 °F87 %30.27 in10.0 miSE (140°)8.1 mphOvercast
10:14 PM8.6 °F6.8 °F92 %30.08 in10.0 miSouth (170°)4.6 mphMostly Cloudy
10:27 PM6.8 °F5.0 °F92 %30.08 in10.0 miSSE (160°)6.9 mphScattered Clouds
10:52 PM6.1 °F3.0 °F87 %30.27 in10.0 miSE (130°)5.8 mphClear
11:52 PM5.0 °F1.9 °F87 %30.27 in10.0 miEast (100°)3.5 mphClear
Hourly data recorded from KRAP, located miles away from Rapid City, South Dakota







STORIES FROM OUR PARTNERS